Precipitable_Water
0.55 0.50 0.49 0.49 0.50 0.50 0.51 0.50 0.50 0.48 0.48 0.47 0.45 0.45 0.45 0.49 0.51 0.50 0.48 0.49 0.49 0.48 0.48 0.47 0.45 0.43 0.43 0.43 0.42 0.41 0.42 0.42 0.42 0.43 0.43 0.42 0.42 0.41 0.40 0.39 0.39 0.39
0.63 0.56 0.53 0.52 0.52 0.53 0.54 0.56 0.54 0.51 0.49 0.49 0.49 0.49 0.49 0.50 0.52 0.52 0.50 0.50 0.51 0.51 0.50 0.49 0.47 0.44 0.43 0.43 0.43 0.42 0.42 0.43 0.41 0.45 0.43 0.41 0.41 0.41 0.40 0.39 0.38 0.39
0.73 0.68 0.58 0.53 0.51 0.52 0.54 0.58 0.59 0.57 0.54 0.53 0.54 0.53 0.52 0.54 0.52 0.53 0.53 0.52 0.52 0.52 0.52 0.51 0.48 0.46 0.44 0.44 0.44 0.43 0.43 0.43 0.42 0.44 0.43 0.42 0.42 0.40 0.40 0.40 0.38 0.37
0.76 0.73 0.69 0.60 0.55 0.54 0.57 0.58 0.60 0.60 0.59 0.56 0.56 0.57 0.57 0.56 0.56 0.54 0.54 0.54 0.53 0.54 0.54 0.52 0.49 0.47 0.45 0.45 0.45 0.43 0.44 0.44 0.44 0.45 0.43 0.42 0.41 0.40 0.38 0.38 0.37 0.37
0.78 0.76 0.75 0.69 0.62 0.59 0.59 0.59 0.60 0.62 0.60 0.59 0.60 0.61 0.61 0.60 0.59 0.58 0.57 0.56 0.55 0.54 0.54 0.53 0.51 0.48 0.46 0.45 0.45 0.43 0.44 0.43 0.44 0.43 0.41 0.41 0.41 0.40 0.39 0.37 0.36 0.34
0.77 0.77 0.77 0.75 0.70 0.63 0.60 0.59 0.62 0.64 0.64 0.62 0.60 0.63 0.64 0.64 0.63 0.61 0.60 0.59 0.59 0.58 0.55 0.53 0.50 0.49 0.47 0.46 0.45 0.44 0.44 0.43 0.43 0.42 0.40 0.39 0.39 0.40 0.38 0.37 0.36 0.34
0.77 0.77 0.75 0.77 0.74 0.68 0.63 0.62 0.64 0.67 0.67 0.65 0.64 0.63 0.65 0.66 0.66 0.65 0.64 0.63 0.63 0.63 0.60 0.55 0.52 0.49 0.48 0.47 0.45 0.44 0.44 0.43 0.42 0.41 0.39 0.39 0.38 0.37 0.37 0.36 0.34 0.33
0.80 0.81 0.76 0.74 0.74 0.73 0.68 0.64 0.64 0.67 0.70 0.68 0.63 0.64 0.66 0.66 0.67 0.69 0.69 0.69 0.68 0.66 0.63 0.60 0.57 0.54 0.52 0.50 0.46 0.44 0.43 0.44 0.42 0.41 0.40 0.39 0.38 0.36 0.35 0.35 0.34 0.32
0.73 0.76 0.77 0.76 0.73 0.74 0.74 0.71 0.69 0.70 0.73 0.71 0.68 0.66 0.68 0.69 0.69 0.70 0.71 0.72 0.71 0.69 0.67 0.62 0.60 0.59 0.58 0.56 0.52 0.48 0.45 0.44 0.44 0.43 0.41 0.40 0.38 0.36 0.35 0.35 0.33 0.32
0.74 0.73 0.75 0.75 0.73 0.73 0.74 0.76 0.77 0.75 0.75 0.74 0.72 0.70 0.68 0.70 0.73 0.72 0.72 0.73 0.72 0.70 0.69 0.67 0.64 0.62 0.61 0.60 0.56 0.53 0.49 0.47 0.46 0.45 0.43 0.42 0.39 0.38 0.36 0.36 0.34 0.32
0.83 0.80 0.76 0.75 0.73 0.73 0.75 0.79 0.81 0.80 0.78 0.76 0.75 0.71 0.69 0.69 0.72 0.74 0.74 0.73 0.71 0.69 0.69 0.68 0.67 0.66 0.64 0.62 0.60 0.57 0.53 0.50 0.48 0.47 0.45 0.43 0.41 0.39 0.37 0.36 0.34 0.32
0.85 0.86 0.83 0.78 0.76 0.76 0.76 0.80 0.84 0.84 0.82 0.79 0.76 0.73 0.70 0.69 0.69 0.71 0.72 0.72 0.72 0.71 0.70 0.70 0.71 0.70 0.68 0.66 0.63 0.60 0.56 0.53 0.50 0.48 0.46 0.44 0.42 0.39 0.36 0.35 0.33 0.32
0.78 0.82 0.84 0.86 0.85 0.82 0.83 0.82 0.83 0.85 0.86 0.84 0.83 0.78 0.73 0.70 0.70 0.70 0.72 0.72 0.71 0.70 0.69 0.69 0.71 0.72 0.70 0.68 0.65 0.62 0.59 0.54 0.51 0.48 0.45 0.43 0.40 0.37 0.35 0.34 0.33 0.32
0.72 0.78 0.82 0.84 0.86 0.87 0.87 0.87 0.86 0.85 0.85 0.86 0.85 0.82 0.79 0.75 0.73 0.73 0.73 0.70 0.69 0.70 0.70 0.70 0.70 0.70 0.70 0.68 0.66 0.65 0.60 0.55 0.51 0.47 0.43 0.41 0.38 0.36 0.34 0.32 0.31 0.31
0.66 0.69 0.73 0.77 0.80 0.82 0.83 0.84 0.85 0.86 0.85 0.84 0.81 0.81 0.83 0.83 0.84 0.82 0.75 0.69 0.70 0.70 0.71 0.71 0.70 0.69 0.69 0.68 0.66 0.63 0.60 0.56 0.52 0.48 0.43 0.40 0.38 0.36 0.34 0.31 0.30 0.29
0.60 0.61 0.62 0.66 0.70 0.74 0.79 0.84 0.85 0.86 0.85 0.83 0.82 0.80 0.79 0.80 0.78 0.80 0.79 0.75 0.72 0.72 0.73 0.73 0.72 0.71 0.68 0.66 0.64 0.61 0.59 0.57 0.54 0.51 0.46 0.41 0.37 0.35 0.33 0.31 0.29 0.28
0.53 0.56 0.58 0.59 0.64 0.69 0.74 0.77 0.80 0.82 0.82 0.82 0.84 0.82 0.85 0.84 0.80 0.76 0.78 0.78 0.76 0.74 0.75 0.74 0.73 0.73 0.70 0.65 0.61 0.59 0.58 0.57 0.53 0.49 0.47 0.42 0.37 0.35 0.33 0.31 0.30 0.28
0.46 0.50 0.51 0.54 0.58 0.64 0.68 0.72 0.73 0.75 0.77 0.79 0.80 0.82 0.82 0.84 0.81 0.80 0.79 0.77 0.73 0.72 0.71 0.71 0.71 0.70 0.70 0.67 0.63 0.61 0.59 0.57 0.53 0.49 0.46 0.43 0.39 0.36 0.34 0.33 0.31 0.30
0.43 0.45 0.47 0.50 0.54 0.58 0.62 0.67 0.69 0.70 0.71 0.73 0.73 0.77 0.79 0.76 0.78 0.79 0.79 0.78 0.77 0.75 0.72 0.71 0.70 0.65 0.64 0.64 0.60 0.58 0.58 0.56 0.52 0.48 0.46 0.43 0.41 0.38 0.35 0.33 0.32 0.30
0.37 0.41 0.43 0.47 0.52 0.55 0.57 0.58 0.62 0.65 0.69 0.71 0.72 0.73 0.72 0.71 0.70 0.68 0.69 0.68 0.69 0.69 0.68 0.69 0.67 0.62 0.60 0.59 0.56 0.55 0.56 0.55 0.52 0.48 0.44 0.44 0.41 0.38 0.36 0.35 0.34 0.32
0.33 0.37 0.41 0.46 0.50 0.52 0.55 0.56 0.58 0.62 0.65 0.68 0.69 0.71 0.70 0.67 0.65 0.64 0.65 0.66 0.66 0.66 0.69 0.69 0.66 0.63 0.62 0.58 0.57 0.54 0.53 0.52 0.52 0.48 0.45 0.44 0.41 0.38 0.37 0.36 0.35 0.34
0.32 0.35 0.39 0.45 0.49 0.50 0.52 0.54 0.57 0.59 0.62 0.66 0.68 0.70 0.70 0.68 0.66 0.65 0.64 0.64 0.66 0.70 0.68 0.65 0.66 0.64 0.60 0.55 0.52 0.50 0.50 0.49 0.48 0.45 0.43 0.42 0.39 0.36 0.37 0.38 0.37 0.35
0.33 0.36 0.38 0.41 0.46 0.47 0.49 0.51 0.55 0.58 0.62 0.66 0.67 0.68 0.66 0.64 0.62 0.62 0.66 0.64 0.66 0.65 0.62 0.60 0.60 0.56 0.52 0.48 0.47 0.47 0.46 0.45 0.44 0.43 0.41 0.40 0.37 0.37 0.37 0.37 0.37 0.37
0.34 0.38 0.40 0.42 0.44 0.45 0.48 0.51 0.53 0.58 0.60 0.64 0.64 0.65 0.63 0.64 0.68 0.70 0.69 0.68 0.67 0.63 0.62 0.58 0.54 0.50 0.47 0.47 0.46 0.44 0.43 0.41 0.42 0.42 0.41 0.39 0.37 0.37 0.37 0.36 0.36 0.35
0.35 0.38 0.41 0.44 0.44 0.45 0.48 0.51 0.53 0.55 0.60 0.64 0.65 0.64 0.65 0.70 0.68 0.67 0.68 0.70 0.67 0.65 0.61 0.54 0.49 0.47 0.46 0.44 0.43 0.41 0.40 0.40 0.41 0.40 0.39 0.37 0.36 0.35 0.37 0.37 0.36 0.36
0.37 0.40 0.43 0.45 0.45 0.47 0.50 0.54 0.60 0.61 0.62 0.63 0.64 0.65 0.65 0.64 0.63 0.64 0.64 0.65 0.63 0.58 0.52 0.49 0.45 0.43 0.42 0.41 0.40 0.39 0.40 0.40 0.39 0.38 0.36 0.36 0.37 0.36 0.35 0.35 0.35 0.35
Wind_Speed
13 13 13 13 12 12 11 11 11 10 10 9 8 8 8 9 9 9 9 9 9 9 9 9 9 9 9 9 9 9 9 10 10 10 11 11 11 12 12 12 13 13
14 14 15 14 14 13 13 12 12 12 11 10 9 9 9 9 9 9 9 9 9 9 9 9 9 9 9 9 9 9 10 10 10 11 11 11 12 12 12 13 13 14
16 16 16 16 16 15 15 14 13 13 12 12 11 10 10 10 9 9 9 10 10 9 9 10 10 10 10 10 10 10 10 11 11 11 12 12 12 13 13 13 14 14
19 19 18 18 18 18 17 16 16 15 15 14 13 12 11 11 10 10 10 10 10 10 10 10 10 10 11 11 11 11 11 12 12 13 13 13 13 14 14 14 14 15
21 20 20 20 19 19 19 19 18 18 17 16 16 15 14 13 12 12 12 11 11 11 11 11 11 11 12 12 12 12 12 13 13 14 14 14 15 15 15 15 15 16
22 22 21 21 21 21 21 21 20 20 19 19 18 17 16 15 15 14 14 13 13 13 12 12 13 13 13 13 13 14 14 14 14 15 15 15 16 16 16 17 17 17
24 24 23 23 23 23 23 23 23 22 22 21 20 19 18 17 17 16 16 15 15 15 14 14 14 14 14 14 15 15 15 15 16 16 16 16 17 17 17 18 18 18
27 26 25 24 25 25 25 25 25 24 24 23 22 21 20 20 19 18 18 17 17 16 16 16 16 16 16 16 16 16 16 17 17 17 18 18 18 18 18 19 19 20
28 28 28 27 27 26 26 26 26 25 25 25 24 23 23 22 21 21 20 19 19 18 18 18 18 18 17 17 17 17 17 18 18 18 19 19 19 20 20 20 21 21
28 29 30 30 29 28 28 28 27 27 26 26 26 26 25 24 23 23 22 21 20 20 20 20 20 20 19 19 19 19 19 19 19 20 20 20 21 21 22 22 23 23
28 29 30 31 31 30 30 29 29 29 29 28 28 27 27 26 25 24 24 23 23 22 22 22 21 21 21 21 22 22 22 21 21 21 22 22 22 23 23 24 24 24
28 29 30 31 32 32 31 31 30 30 30 30 29 29 28 28 27 26 26 25 25 24 24 24 23 23 23 23 23 23 23 24 23 23 24 24 24 24 25 25 25 25
28 28 29 30 31 32 32 33 32 32 32 32 32 31 31 30 29 28 28 27 26 26 26 26 25 25 25 25 25 25 25 25 25 25 26 26 26 26 26 26 26 26
27 28 29 30 31 32 33 34 34 34 34 34 34 34 33 32 31 30 29 28 28 27 27 27 27 27 27 27 26 26 26 27 27 27 27 27 27 27 26 26 26 26
28 29 30 31 32 32 32 33 34 35 35 35 36 35 35 34 33 32 31 30 29 29 28 28 28 28 28 28 28 28 28 28 28 28 28 28 28 28 27 27 27 27
30 31 31 32 32 33 33 33 34 35 36 36 37 36 35 34 32 32 32 31 30 30 30 30 30 30 30 30 30 30 30 29 29 29 29 29 29 28 28 28 28 28
32 33 33 33 33 33 33 33 33 34 35 35 36 35 35 34 33 32 33 32 31 32 32 32 32 32 31 31 31 31 30 30 30 30 29 29 29 29 29 30 30 30
34 34 34 34 34 34 34 34 34 34 34 35 36 35 35 35 34 33 33 33 33 33 33 33 33 32 32 32 31 31 32 31 31 30 30 30 31 31 31 31 31 30
34 35 35 34 34 34 35 35 35 35 35 36 37 36 35 35 34 34 34 33 33 33 33 33 33 32 32 32 32 32 32 32 31 31 32 32 32 32 32 32 32 32
35 35 35 35 35 35 35 35 36 36 37 37 37 37 36 36 35 35 35 34 34 33 33 33 32 32 32 32 32 33 32 32 33 33 33 33 33 33 33 33 33 33
36 36 36 36 36 36 36 36 36 36 37 37 37 37 37 37 36 36 35 35 34 33 33 32 31 31 32 32 33 33 33 33 34 34 34 34 34 34 34 34 34 35
36 36 36 37 37 36 36 36 36 36 37 37 37 36 36 36 35 35 34 34 33 32 31 31 31 31 32 33 33 34 33 34 34 34 33 34 34 35 35 36 36 36
35 36 36 37 37 37 36 36 36 36 36 37 37 36 36 35 35 34 33 33 32 32 31 31 32 32 33 33 34 34 34 34 34 33 33 34 34 35 36 37 38 38
36 36 36 36 37 37 36 36 36 36 36 37 37 37 36 35 33 32 32 31 31 31 31 31 31 32 32 33 33 34 34 33 33 33 33 34 34 35 36 38 39 40
37 37 37 36 36 36 36 36 35 35 35 35 36 35 34 33 31 31 30 30 29 30 30 30 31 32 33 33 33 34 34 34 33 33 34 35 35 36 37 38 39 40
37 37 37 36 36 35 35 35 35 34 34 34 34 33 32 31 30 30 29 29 30 30 31 31 32 32 32 32 33 33 34 34 35 35 36 36 36 37 37 38 39 39
Wind_Direction
249 250 251 252 252 253 253 253 253 254 256 258 259 260 261 261 261 260 260 259 259 260 260 260 260 260 261 262 263 263 263 263 263 263 262 262 263 263 264 264 263 262
250 252 254 254 254 254 255 255 255 255 257 260 261 262 263 264 263 262 261 260 260 260 260 261 261 262 264 265 266 267 267 268 268 268 267 266 266 266 266 266 265 264
251 253 254 255 256 255 256 257 257 257 259 261 263 264 264 265 265 264 262 261 261 262 261 262 263 264 266 267 268 268 268 269 270 270 270 270 270 269 268 268 268 267
251 252 253 255 256 257 257 258 259 259 260 260 261 263 264 265 265 265 264 263 263 263 263 264 265 266 267 268 270 270 270 271 271 271 271 272 272 271 271 271 270 270
250 251 252 253 255 257 258 258 259 261 261 260 260 261 262 262 263 264 264 264 264 265 265 266 267 268 269 270 271 272 273 273 274 274 274 274 274 274 273 273 273 273
250 252 253 253 254 255 257 258 259 261 261 261 260 259 260 261 262 263 263 264 264 266 267 268 269 270 270 271 271 272 272 273 274 275 275 275 275 275 275 275 275 275
252 254 255 256 256 256 257 257 259 260 260 260 260 259 259 260 261 262 263 263 263 264 266 269 270 271 272 272 272 272 272 272 272 273 274 274 274 275 275 276 276 276
253 255 256 257 257 257 257 258 259 259 258 259 259 259 259 260 261 262 263 263 263 264 265 267 269 271 273 273 273 273 273 273 273 273 273 273 274 274 274 275 276 276
254 255 257 257 257 257 256 257 258 258 257 257 258 258 258 259 260 262 263 264 264 264 266 267 268 270 272 273 274 274 274 274 275 275 274 274 274 275 274 274 275 276
256 255 256 257 257 257 256 256 256 257 258 258 258 257 257 258 260 261 263 263 264 265 267 268 269 269 271 273 274 275 275 275 276 276 276 276 275 275 275 275 275 275
257 256 256 257 257 257 256 256 256 256 257 257 257 257 256 257 258 260 261 261 262 265 267 268 269 270 272 274 275 275 275 275 276 277 277 277 276 276 276 276 276 275
258 258 257 257 257 258 257 256 256 256 256 256 257 256 256 256 257 258 259 259 261 263 265 267 268 270 272 274 275 276 276 276 276 277 278 278 277 277 277 276 275 275
260 260 259 258 258 259 259 258 257 257 257 257 257 256 256 256 256 256 257 258 260 262 263 265 266 268 270 272 273 275 276 277 277 277 278 278 278 278 277 276 276 275
263 262 261 261 260 260 261 260 259 258 257 257 257 256 255 255 255 255 257 258 260 261 262 264 266 267 268 270 272 274 276 278 278 277 277 278 278 278 278 277 276 276
264 263 263 263 262 262 262 261 260 259 258 258 257 256 255 254 254 255 256 258 260 261 262 264 266 267 268 269 272 274 276 278 279 278 277 277 277 277 277 277 277 276
265 265 265 263 262 262 261 260 259 259 258 258 257 254 252 252 253 254 256 257 259 260 261 263 266 268 268 269 271 274 275 277 278 278 277 276 276 277 277 277 277 276
267 266 265 264 262 261 260 259 259 258 257 257 256 254 251 251 252 254 255 257 259 261 263 264 267 268 268 269 271 273 275 276 277 278 277 275 276 276 276 277 277 276
268 267 266 265 263 260 258 258 258 258 257 256 255 253 251 251 252 253 254 257 261 263 264 265 267 267 267 268 270 272 274 275 276 277 276 275 275 276 276 276 276 276
269 267 266 265 263 261 259 257 257 257 256 255 253 251 251 252 253 252 253 257 261 263 265 266 266 266 266 267 270 273 274 274 274 275 276 275 275 276 276 276 276 276
268 267 265 264 264 262 260 258 257 256 255 253 252 250 250 252 252 253 254 258 261 264 265 265 265 265 265 267 270 273 274 272 272 274 276 275 274 275 276 276 276 276
268 266 265 264 264 262 260 259 257 256 255 253 251 250 250 250 251 253 255 259 262 263 264 264 264 264 265 267 270 273 273 272 273 275 275 274 274 276 276 277 278 278
268 266 264 263 263 261 259 258 257 255 254 253 251 250 250 250 251 253 255 258 260 260 262 263 264 265 267 269 271 271 272 273 274 275 275 275 276 276 276 277 278 278
267 265 263 262 261 260 259 257 256 255 254 252 250 249 249 249 250 253 255 257 257 258 261 264 266 267 268 270 270 271 272 274 274 274 275 277 277 277 276 277 277 277
266 265 263 262 261 259 258 257 256 255 254 252 250 248 247 248 250 253 254 254 255 258 262 264 266 268 268 269 271 272 273 273 273 273 275 277 278 278 277 277 277 277
266 265 263 262 261 260 258 256 255 255 254 251 248 247 246 247 250 252 251 252 255 259 262 264 267 269 269 269 271 271 272 273 274 274 276 278 278 278 278 278 278 278
266 264 263 261 261 260 258 256 255 254 252 249 246 245 245 246 249 249 249 252 257 260 263 265 268 269 269 270 271 273 274 275 276 277 278 278 278 278 279 280 280 280